Probability
0 10 42 45 48 48 48 45 42 42 42 42 35 32 29 39 35 35 32 39 32 32 23 26 26 23 23 23 23 29 29 29 35 35 35 32 16 23 16 16 13 10 23
0 16 45 48 45 48 45 45 39 45 42 39 42 35 29 39 29 26 16 23 23 19 16 23 23 23 29 23 26 29 23 16 19 13 6 10 13 16 10 10 10 3 13
10 26 35 45 45 45 45 45 32 39 35 35 35 32 23 26 29 26 23 19 23 23 10 16 13 19 19 16 19 19 10 16 13 3 0 0 3 16 10 10 19 13 10
13 26 39 52 45 45 48 42 32 35 35 32 32 29 29 26 16 19 23 16 19 19 13 16 19 16 13 13 13 10 10 13 3 0 0 0 3 10 6 6 10 10 16
13 23 35 52 48 48 48 45 42 35 35 35 32 29 29 26 19 23 23 23 19 16 19 23 19 10 6 10 10 6 10 6 0 0 0 0 0 6 6 13 10 10 13
6 16 29 45 45 48 45 42 39 35 26 29 26 23 23 19 26 26 23 26 23 23 19 19 23 10 13 13 10 10 6 3 0 0 0 0 0 3 10 13 6 6 6
0 13 26 45 39 39 35 39 42 32 26 32 23 23 19 23 23 23 19 19 23 23 26 23 10 10 10 13 10 10 6 0 0 0 0 0 0 3 6 10 3 6 6
3 13 23 29 23 23 26 29 29 26 26 26 23 19 19 19 19 19 19 19 23 13 19 23 13 10 10 10 10 10 6 0 0 0 0 0 0 6 10 13 6 6 6
6 13 13 16 13 16 16 19 23 19 19 23 23 19 16 16 16 16 19 19 19 16 13 16 19 10 10 10 10 6 0 0 0 0 0 0 0 3 6 10 6 10 6
10 10 6 6 6 6 6 13 13 13 16 13 13 6 6 3 10 10 13 16 16 16 13 16 16 10 10 10 6 3 0 0 0 0 0 0 0 3 3 3 3 6 6
6 10 3 3 3 6 3 3 3 3 3 3 3 6 3 3 0 3 6 6 10 16 13 10 13 13 6 0 0 0 0 0 0 0 0 0 0 0 0 3 10 6 6
6 10 0 0 0 0 0 0 0 3 3 3 3 0 0 0 0 3 3 6 6 6 3 6 6 6 0 0 0 0 0 0 0 0 0 0 0 0 0 0 3 10 10
3 0 0 0 0 0 0 0 0 0 0 0 0 0 0 0 0 0 0 0 0 0 0 3 0 0 0 0 0 0 0 0 0 0 0 0 0 0 0 0 0 3 6
3 0 0 0 0 0 0 0 0 0 0 0 0 0 0 0 0 0 0 0 0 0 0 0 0 0 0 0 0 0 0 0 0 0 0 0 0 0 0 0 3 6 0
0 0 0 0 0 0 0 0 0 0 0 0 0 0 0 0 0 0 0 0 0 0 0 0 0 0 0 0 0 0 0 0 0 0 0 0 0 3 3 0 0 3 3
0 0 0 0 0 0 0 0 0 0 0 0 0 0 0 0 0 0 0 0 0 0 0 0 0 0 0 0 0 0 0 0 0 0 0 0 0 0 3 3 0 0 3
0 0 0 0 0 0 0 0 0 0 0 0 0 0 0 0 0 0 0 0 0 0 0 0 0 0 0 0 0 0 0 0 0 0 0 0 0 0 0 3 0 0 0
0 0 0 0 0 0 0 0 0 0 0 0 0 0 0 0 0 0 0 0 0 0 0 0 0 0 0 0 0 0 0 0 0 0 0 0 0 0 0 0 0 0 0
0 0 0 0 0 0 0 0 0 0 0 0 0 0 0 0 0 0 0 0 0 0 0 0 0 0 0 0 0 0 0 0 0 0 0 0 0 0 0 0 0 0 0
0 0 0 0 0 0 0 0 0 0 0 0 0 0 0 0 0 0 0 0 0 0 0 0 0 0 0 0 0 0 0 0 0 0 0 0 0 0 0 0 0 0 0
0 0 0 0 0 0 0 0 0 0 0 0 0 0 0 0 0 0 0 0 0 0 0 0 0 0 0 0 0 0 0 0 0 0 0 0 0 0 0 0 0 0 0
0 0 0 0 0 0 0 0 0 0 0 0 0 0 0 0 0 0 0 0 0 0 0 0 0 0 0 0 0 0 0 0 0 0 0 0 0 0 0 0 0 0 0
0 0 0 0 0 0 0 0 0 0 0 0 0 0 0 0 0 0 0 0 0 0 0 0 0 0 0 0 0 0 0 0 0 0 0 0 0 0 0 0 0 0 0
0 0 0 0 0 0 0 0 0 0 0 0 0 0 0 0 0 0 0 0 0 0 0 0 0 0 0 0 0 0 0 0 0 0 0 0 0 0 0 0 0 0 0
0 0 0 0 0 0 0 0 0 0 0 0 0 0 0 0 0 0 0 0 0 0 0 0 0 0 0 0 0 0 0 0 0 0 0 0 0 0 0 0 0 0 0
0 0 0 0 0 0 0 0 0 0 0 0 0 0 0 0 0 0 0 0 0 0 0 0 0 0 0 0 0 0 0 0 0 0 0 0 0 0 0 0 0 0 0
Height
5832 5832 5833 5833 5833 5834 5834 5835 5835 5836 5836 5837 5838 5838 5839 5840 5841 5842 5843 5844 5845 5846 5847 5848 5849 5850 5851 5851 5852 5853 5854 5855 5855 5856 5857 5857 5858 5859 5859 5860 5860 5861 5861
5829 5830 5830 5831 5831 5831 5832 5832 5833 5833 5834 5835 5835 5836 5837 5838 5839 5840 5841 5842 5843 5844 5845 5846 5847 5848 5849 5850 5851 5852 5852 5853 5854 5855 5856 5856 5857 5858 5858 5859 5859 5860 5861
5826 5827 5827 5828 5828 5829 5829 5830 5830 5831 5831 5832 5833 5834 5834 5835 5836 5837 5838 5840 5841 5842 5842 5844 5845 5846 5847 5848 5849 5850 5851 5852 5852 5853 5854 5855 5856 5857 5857 5858 5858 5859 5860
5823 5823 5824 5824 5825 5825 5826 5827 5827 5828 5828 5829 5830 5831 5832 5832 5833 5835 5836 5837 5838 5839 5840 5841 5842 5843 5844 5845 5846 5847 5848 5849 5851 5851 5852 5853 5854 5855 5856 5857 5857 5858 5858
5820 5820 5820 5821 5821 5822 5823 5823 5824 5825 5825 5826 5827 5828 5828 5829 5830 5831 5833 5834 5835 5836 5837 5838 5840 5841 5842 5843 5844 5845 5846 5847 5848 5849 5850 5851 5852 5853 5854 5855 5856 5856 5857
5816 5816 5817 5817 5818 5818 5819 5820 5821 5821 5822 5823 5823 5824 5825 5826 5827 5828 5829 5831 5832 5833 5834 5835 5837 5838 5839 5840 5841 5843 5844 5845 5846 5847 5848 5849 5850 5851 5852 5853 5854 5854 5855
5812 5812 5813 5813 5814 5815 5815 5816 5817 5817 5818 5819 5820 5820 5821 5822 5824 5825 5826 5827 5828 5830 5831 5832 5834 5835 5836 5837 5839 5840 5841 5842 5843 5844 5845 5846 5848 5848 5849 5850 5851 5852 5853
5808 5808 5808 5809 5809 5810 5811 5811 5812 5813 5814 5815 5815 5816 5817 5819 5820 5821 5822 5824 5825 5826 5827 5829 5830 5831 5833 5834 5835 5837 5838 5839 5840 5842 5843 5844 5845 5846 5847 5848 5849 5849 5850
5803 5803 5803 5804 5804 5805 5805 5806 5807 5808 5809 5810 5811 5812 5813 5814 5816 5817 5818 5820 5821 5822 5824 5825 5826 5828 5829 5830 5832 5833 5835 5836 5837 5838 5839 5840 5841 5843 5844 5845 5846 5847 5847
5797 5797 5798 5798 5799 5799 5800 5801 5802 5803 5804 5805 5806 5807 5809 5810 5811 5813 5814 5816 5817 5818 5820 5821 5822 5824 5825 5826 5828 5829 5831 5832 5833 5835 5836 5837 5838 5839 5840 5841 5842 5843 5844
5792 5792 5792 5792 5793 5793 5794 5795 5796 5797 5798 5800 5801 5802 5804 5805 5807 5808 5809 5811 5812 5814 5815 5816 5818 5819 5821 5822 5824 5825 5827 5828 5829 5831 5832 5833 5834 5835 5837 5838 5839 5839 5840
5786 5786 5786 5786 5787 5787 5788 5789 5790 5791 5792 5794 5795 5797 5798 5800 5802 5803 5804 5806 5807 5809 5810 5812 5813 5815 5816 5818 5819 5821 5823 5824 5825 5827 5828 5829 5830 5831 5832 5833 5834 5835 5836
5779 5780 5780 5780 5780 5781 5782 5783 5784 5785 5786 5787 5789 5791 5793 5795 5796 5798 5799 5801 5802 5804 5805 5807 5808 5810 5812 5813 5815 5816 5818 5819 5821 5822 5823 5825 5826 5827 5828 5829 5830 5831 5832
5773 5773 5773 5773 5774 5774 5775 5776 5777 5778 5780 5781 5783 5785 5787 5788 5790 5792 5794 5795 5796 5798 5800 5801 5803 5804 5806 5808 5810 5811 5813 5814 5816 5817 5819 5820 5821 5822 5823 5824 5825 5826 5827
5765 5765 5765 5766 5766 5767 5768 5769 5770 5772 5773 5775 5776 5778 5780 5782 5784 5786 5787 5788 5790 5791 5793 5795 5796 5798 5800 5802 5804 5806 5808 5809 5810 5812 5814 5815 5816 5817 5818 5819 5820 5822 5823
5757 5757 5758 5758 5759 5760 5760 5762 5763 5764 5766 5767 5769 5771 5773 5775 5777 5778 5780 5781 5783 5785 5786 5788 5790 5792 5794 5796 5798 5800 5802 5803 5805 5806 5808 5809 5811 5812 5813 5814 5815 5816 5817
5749 5749 5749 5749 5750 5751 5752 5754 5755 5756 5758 5760 5762 5764 5766 5768 5770 5771 5773 5774 5776 5778 5780 5781 5783 5785 5787 5790 5792 5794 5795 5797 5799 5800 5802 5803 5805 5806 5807 5808 5809 5810 5811
5740 5740 5740 5741 5741 5742 5744 5745 5746 5748 5750 5752 5754 5756 5758 5760 5762 5763 5765 5767 5768 5770 5772 5774 5776 5778 5780 5783 5785 5787 5789 5791 5792 5794 5796 5797 5798 5800 5801 5802 5803 5804 5805
5731 5731 5731 5732 5732 5733 5734 5736 5737 5739 5741 5743 5745 5747 5749 5751 5753 5755 5757 5759 5761 5763 5765 5766 5769 5771 5773 5775 5778 5780 5782 5784 5785 5787 5789 5790 5792 5793 5794 5796 5796 5797 5798
5721 5721 5721 5722 5722 5723 5724 5726 5728 5729 5731 5733 5735 5738 5740 5742 5744 5746 5748 5751 5752 5754 5757 5759 5761 5763 5766 5768 5770 5772 5774 5776 5778 5780 5782 5783 5784 5786 5787 5788 5789 5790 5791
5710 5710 5710 5711 5712 5713 5714 5716 5717 5719 5721 5722 5725 5727 5730 5732 5735 5737 5739 5741 5743 5745 5748 5750 5753 5755 5757 5760 5762 5764 5766 5768 5770 5772 5774 5775 5777 5778 5780 5781 5782 5783 5784
5699 5699 5699 5700 5700 5701 5703 5704 5706 5708 5710 5711 5714 5716 5719 5722 5724 5727 5729 5732 5734 5736 5739 5741 5744 5746 5749 5752 5754 5756 5758 5761 5762 5764 5766 5767 5769 5770 5772 5773 5774 5775 5776
5687 5687 5688 5688 5689 5690 5691 5692 5693 5695 5697 5700 5702 5705 5707 5710 5713 5716 5719 5722 5724 5727 5730 5732 5735 5738 5740 5743 5745 5748 5750 5752 5754 5756 5758 5759 5761 5762 5763 5765 5766 5766 5767
5675 5675 5675 5675 5676 5677 5678 5679 5681 5683 5685 5687 5689 5692 5695 5698 5701 5704 5707 5710 5713 5717 5720 5722 5725 5728 5731 5733 5736 5739 5741 5743 5745 5748 5749 5751 5752 5754 5755 5756 5757 5758 5758
5662 5662 5663 5663 5663 5664 5665 5667 5668 5670 5672 5674 5677 5680 5683 5686 5689 5692 5695 5699 5702 5705 5709 5712 5715 5718 5721 5724 5726 5729 5731 5734 5736 5738 5740 5742 5744 5745 5746 5747 5748 5749 5749
5649 5649 5649 5650 5651 5651 5652 5654 5655 5657 5659 5662 5664 5667 5670 5673 5677 5680 5683 5687 5690 5694 5697 5701 5704 5707 5710 5713 5716 5719 5722 5724 5726 5729 5731 5732 5734 5736 5737 5738 5739 5739 5740
Wind_Speed
13 13 13 13 13 13 13 12 12 11 11 11 11 11 11 11 11 11 11 10 10 10 10 9 9 8 8 8 8 7 7 7 6 6 6 6 5 5 5 5 5 4 4
14 14 14 14 14 14 14 13 13 13 12 12 12 12 12 12 12 12 12 11 11 11 11 10 10 10 9 9 9 9 9 8 8 8 7 7 7 6 6 6 6 6 5
15 15 15 15 15 15 15 14 14 14 14 13 13 13 13 13 13 13 13 12 12 12 12 12 12 12 11 11 10 10 10 10 10 9 9 8 8 7 7 6 6 6 6
16 16 16 16 16 16 16 15 15 15 14 14 14 14 14 14 14 14 14 14 13 13 13 13 13 13 12 12 12 11 11 11 11 10 10 9 9 8 8 7 7 7 7
18 18 17 17 17 17 17 17 16 16 16 15 15 15 15 15 15 15 15 15 15 15 15 14 14 13 13 13 12 12 12 12 11 11 11 11 10 10 9 9 9 8 8
19 19 19 19 19 19 19 19 18 17 17 17 16 16 16 16 16 16 16 16 16 16 16 16 15 15 14 14 13 13 13 13 13 13 13 13 12 12 11 11 10 10 10
20 20 21 21 21 21 21 20 20 19 19 18 17 17 17 17 17 17 16 16 17 17 17 17 16 16 16 15 15 14 14 14 14 15 15 14 14 13 13 13 12 12 12
22 22 22 22 23 23 22 22 22 21 20 20 19 19 18 18 18 18 18 18 18 18 18 18 18 17 17 17 17 16 16 15 15 15 15 15 15 15 14 14 14 14 14
23 24 24 23 24 24 24 24 23 23 22 22 21 21 20 20 20 20 19 19 19 19 19 19 19 19 19 19 18 18 18 17 17 17 16 16 16 16 15 15 15 15 15
24 24 25 25 25 25 25 25 25 25 24 24 23 22 22 21 21 21 21 21 20 20 21 21 20 20 20 20 19 19 19 18 18 18 18 17 17 17 17 16 16 16 16
24 25 25 26 26 26 25 25 26 26 26 25 25 24 23 23 22 22 22 22 22 22 22 22 21 21 21 21 21 20 20 19 19 18 19 19 18 19 19 18 18 18 17
25 25 26 26 27 27 27 27 27 27 27 27 26 26 25 25 24 24 23 23 23 23 23 23 22 22 22 22 22 22 21 21 21 20 20 20 20 19 20 20 20 20 19
27 27 27 28 28 28 28 28 28 28 28 28 28 28 27 26 26 25 25 25 24 24 25 24 24 23 23 23 23 23 23 23 22 22 21 21 21 21 21 21 21 21 20
29 29 29 29 30 30 29 29 29 29 29 29 29 29 29 28 27 27 26 26 26 26 26 26 26 25 25 24 24 24 24 24 24 23 22 22 22 23 23 23 22 22 22
30 30 31 31 31 31 31 31 31 30 30 30 30 30 30 30 29 29 28 28 28 28 28 28 28 27 26 26 25 25 25 26 26 25 24 23 23 23 24 24 24 24 24
32 32 32 33 32 33 33 32 32 32 32 31 31 32 32 31 31 30 31 31 30 30 29 29 29 29 28 28 27 26 26 27 27 27 27 26 25 25 25 25 25 25 25
33 34 34 34 34 34 34 34 34 34 34 33 33 33 33 33 32 33 32 32 32 31 31 30 29 29 29 29 28 28 28 27 28 28 28 28 27 27 27 27 26 26 27
35 35 35 35 36 36 36 36 36 36 36 35 35 35 35 34 34 34 34 33 33 32 31 31 30 30 30 30 30 29 29 29 28 28 29 28 29 28 28 28 28 28 28
37 37 37 37 37 37 38 38 38 38 38 38 37 36 36 36 36 35 35 35 34 33 33 33 32 32 31 31 31 31 30 31 30 30 30 30 30 30 30 30 30 30 29
38 38 39 39 39 39 39 40 40 40 40 40 40 39 38 38 37 36 36 36 36 35 35 35 34 34 33 33 33 32 32 32 32 32 32 32 31 30 30 31 31 31 30
40 41 41 41 41 40 40 41 42 42 42 42 42 42 41 40 39 38 38 37 37 36 36 37 37 36 34 34 34 34 34 33 33 33 33 33 32 31 31 31 31 31 31
42 42 42 42 42 42 42 42 43 43 43 44 44 44 44 43 42 41 40 39 38 38 37 37 37 37 37 36 36 36 35 35 34 34 34 34 34 34 33 32 32 32 32
43 43 43 43 43 44 43 43 44 44 44 45 45 45 45 44 44 43 42 41 40 40 39 38 38 38 37 38 37 37 36 36 36 36 35 35 35 35 35 34 33 34 33
43 43 44 44 44 44 44 44 44 45 45 46 46 46 46 45 45 45 44 43 42 42 41 39 39 39 39 39 38 38 38 37 37 37 37 37 36 35 35 35 35 36 35
44 44 45 46 45 45 45 45 45 45 46 47 46 47 47 47 46 46 45 45 44 44 43 42 41 41 41 40 40 39 39 38 37 38 38 38 37 37 36 36 36 37 37
44 45 45 46 46 46 45 45 45 45 46 46 46 47 47 47 47 47 47 46 46 46 45 45 44 43 43 42 42 41 40 40 39 39 38 38 38 38 37 37 37 37 37
Wind_Direction
264 264 264 264 264 262 260 259 258 257 255 255 254 252 252 251 249 248 250 252 254 252 251 250 252 254 252 248 247 248 247 245 244 243 240 241 238 235 233 230 231 233 232
264 264 263 263 263 263 259 258 257 256 255 255 254 253 252 251 250 250 251 251 250 249 249 250 251 253 252 251 250 250 248 247 245 245 243 241 239 239 238 236 236 239 239
264 262 262 262 262 262 260 257 257 257 257 255 255 255 254 252 250 249 249 249 248 249 250 250 251 252 252 252 251 251 250 248 247 246 244 243 241 241 240 238 236 239 240
264 262 261 261 261 260 259 258 257 257 258 257 256 255 254 253 252 251 251 250 250 250 251 252 251 252 252 250 249 250 249 248 247 245 243 243 242 243 241 240 241 242 243
264 262 261 260 259 258 258 258 257 257 256 256 256 255 254 252 252 252 253 252 251 251 250 250 252 251 250 250 250 249 248 247 247 244 243 244 245 246 246 246 246 246 246
264 262 262 261 259 258 257 256 256 256 256 256 255 254 253 252 252 253 253 251 251 251 250 250 251 251 250 248 249 249 248 247 246 245 245 245 247 250 250 250 251 250 249
265 263 262 261 260 259 257 256 255 254 254 254 253 253 252 252 252 253 252 251 251 251 251 251 250 251 250 248 247 249 249 249 247 247 247 247 248 250 251 253 253 253 251
266 264 262 260 259 258 257 257 255 254 253 252 251 251 251 251 251 251 252 252 252 251 251 251 251 251 251 249 248 249 251 250 248 248 249 248 248 248 251 254 254 254 255
265 263 261 260 259 258 257 256 255 254 252 251 250 250 251 251 250 250 252 253 253 252 252 252 251 252 251 251 250 250 250 250 249 249 249 250 249 249 250 252 255 256 257
264 262 260 259 259 258 257 255 255 254 253 251 250 249 250 251 251 251 252 253 254 253 252 252 252 251 250 250 251 251 250 251 251 250 250 250 250 249 250 252 255 256 258
265 263 260 258 257 256 256 255 254 253 252 251 250 249 249 249 250 251 252 253 252 252 252 252 251 250 249 250 250 250 250 251 251 251 251 251 251 251 251 252 255 257 258
265 264 262 260 257 256 255 254 254 253 252 250 250 251 249 249 249 250 252 252 251 251 252 252 250 249 249 250 250 250 250 250 251 251 251 251 250 252 253 253 255 257 258
263 262 261 260 258 257 256 255 254 253 252 251 250 250 250 250 249 250 251 251 251 251 252 251 250 250 251 251 251 251 251 251 252 251 251 252 252 252 253 254 255 256 259
264 262 261 259 258 257 256 255 255 254 253 252 249 249 249 250 251 250 251 251 250 250 251 251 251 251 252 252 252 252 252 252 252 252 252 253 254 254 254 254 257 258 260
265 263 261 259 257 256 256 254 254 255 253 252 250 248 249 249 249 251 251 252 252 252 253 253 250 251 251 251 251 251 252 252 252 252 252 253 254 255 255 255 257 259 260
266 264 262 260 258 256 255 253 253 253 252 251 250 250 250 250 250 251 252 252 253 252 252 252 251 250 250 250 250 251 251 252 252 253 254 254 255 256 256 257 258 259 261
265 264 263 260 259 256 255 255 254 253 251 250 250 250 250 250 251 252 253 253 253 253 251 251 250 250 250 249 250 251 251 252 253 254 254 255 256 257 258 259 259 260 261
266 264 263 261 259 256 255 255 254 253 251 250 250 250 250 249 250 251 252 252 252 252 250 250 249 249 249 249 249 251 251 252 253 254 255 256 257 258 259 260 260 261 261
265 264 263 261 261 258 256 256 255 254 252 250 250 250 250 251 251 251 252 252 252 252 250 249 249 250 250 249 249 250 251 252 253 254 255 256 257 258 259 260 261 261 261
264 264 263 262 260 258 256 255 255 254 253 251 250 250 250 251 252 252 252 252 252 252 250 249 249 250 250 250 250 250 251 252 253 254 255 255 255 257 260 260 261 261 262
264 263 263 262 261 259 257 255 254 254 253 252 250 250 250 251 251 252 251 251 251 250 250 250 248 249 250 250 250 251 251 253 255 255 255 255 257 259 261 261 261 261 262
264 263 263 263 262 260 258 256 255 253 253 252 250 250 250 250 250 251 251 251 252 250 250 250 249 249 250 250 251 252 252 253 255 256 257 258 259 260 261 261 262 263 263
264 263 262 262 262 261 258 257 255 253 252 251 250 249 249 250 250 250 250 251 251 250 250 249 248 249 251 251 251 251 253 255 256 256 258 259 260 260 261 262 263 264 265
264 264 262 261 261 260 259 257 255 253 252 251 250 249 248 249 249 250 250 250 251 249 249 249 248 249 250 251 252 252 253 256 256 257 257 258 259 260 262 263 265 266 267
264 264 263 262 260 259 257 256 255 253 251 251 250 249 248 248 249 249 249 249 249 248 248 247 248 249 249 251 253 254 255 256 257 258 257 258 259 260 261 263 265 266 266
266 264 263 261 260 258 256 255 254 253 252 251 250 249 248 248 248 249 249 248 248 248 248 247 248 249 251 251 253 253 255 257 258 258 258 259 260 260 261 263 264 264 265